Waarnemingen

Advertentie
Mijn weer
F16-A, Nederland (6206): temperatuur & dauwpunt: 12.11.2017 03:00:00 - 18.11.2017 03:00:00 (CET)F16-A, Nederland (6206): windsnelheid & windstoten: 12.11.2017 03:00:00 - 18.11.2017 03:00:00 (CET)F16-A, Nederland (6206): windrichting: 12.11.2017 03:00:00 - 18.11.2017 03:00:00 (CET)F16-A, Nederland (6206): luchtdruk: 12.11.2017 03:00:00 - 18.11.2017 03:00:00 (CET)F16-A, Nederland (6206): zicht: 12.11.2017 03:00:00 - 18.11.2017 03:00:00 (CET)
Datum & Tijd tt [°C] td [°C] ff [km/u] ff [kn] fx [km/u] fx [kn] dd ppp [hPa] vv [km]
18.11.2017 03:00:00 10,0 4,7 46 25 50 27 W 1016,8 10
18.11.2017 02:00:00 9,7 4,8 44 24 47 25 W 1018,1 10
18.11.2017 01:00:00 10,0 5,1 44 24 - - W 1018,7 10
18.11.2017 00:00:00 9,8 4,3 41 22 43 23 W 1019,5 10
17.11.2017 23:00:00 9,9 4,6 41 22 40 21 W 1020,1 10
17.11.2017 22:00:00 9,8 4,3 37 20 - - W 1020,7 10
17.11.2017 21:00:00 9,7 3,7 35 19 36 19 W 1021,1 10
17.11.2017 20:00:00 9,6 3,5 35 19 36 19 W 1021,8 10
17.11.2017 19:00:00 9,7 3,0 31 17 - - W 1022,3 10
17.11.2017 18:00:00 9,7 2,1 34 18 36 19 W 1022,8 10
17.11.2017 17:00:00 9,9 3,1 31 17 32 18 W 1023,4 10
17.11.2017 16:00:00 9,8 3,1 28 15 - - W 1023,6 10
17.11.2017 15:00:00 9,7 2,5 31 17 32 18 W 1023,9 10
17.11.2017 14:00:00 10,1 3,1 26 14 29 16 W 1024,5 10
17.11.2017 13:00:00 10,2 2,1 31 17 - - W 1025,1 10
17.11.2017 12:00:00 9,9 2,6 29 16 29 16 W 1025,6 10
17.11.2017 11:00:00 9,9 2,8 22 12 29 16 W 1025,6 10
17.11.2017 10:00:00 9,7 3,4 26 14 - - W 1025,7 10
17.11.2017 09:00:00 9,4 1,9 26 14 29 16 W 1025,7 10
17.11.2017 08:00:00 9,5 2,7 18 10 36 19 W 1025,5 10
17.11.2017 07:00:00 9,4 1,9 22 12 - - WNW 1025,3 10
17.11.2017 06:00:00 9,4 1,2 26 14 32 18 WNW 1025,2 10
17.11.2017 05:00:00 9,6 2,6 24 13 36 19 W 1025,1 10
17.11.2017 04:00:00 9,5 1,9 22 12 - - W 1025,0 10
17.11.2017 03:00:00 9,6 1,3 26 14 36 19 WNW 1025,0 10
17.11.2017 02:00:00 9,8 1,5 29 16 36 19 WNW 1024,6 10
17.11.2017 01:00:00 9,8 1,9 31 17 - - NW 1024,3 10
17.11.2017 00:00:00 9,7 1,4 31 17 36 19 NW 1024,0 10
16.11.2017 23:00:00 9,7 1,2 35 19 36 19 NW 1023,8 10
16.11.2017 22:00:00 9,9 3,4 35 19 - - NW 1023,2 10
16.11.2017 21:00:00 10,1 3,0 34 18 43 23 NW 1022,3 10
16.11.2017 20:00:00 9,4 4,3 41 22 47 25 NW 1021,4 10
16.11.2017 19:00:00 10,2 4,9 46 25 - - NW 1020,2 10
16.11.2017 18:00:00 10,7 5,5 52 28 54 29 WNW 1019,3 10
16.11.2017 17:00:00 10,8 7,0 41 22 58 31 WNW 1018,4 10
16.11.2017 16:00:00 10,8 9,2 41 22 - - WZW 1017,5 10
16.11.2017 15:00:00 11,9 9,2 41 22 40 21 WZW 1017,4 10
16.11.2017 14:00:00 11,9 9,2 37 20 40 21 ZW 1017,4 10
16.11.2017 13:00:00 11,7 9,6 39 21 - - ZW 1017,6 10
16.11.2017 12:00:00 11,5 9,3 39 21 43 23 ZW 1018,2 10
16.11.2017 11:00:00 11,8 10,0 39 21 40 21 ZZW 1018,5 10
16.11.2017 10:00:00 11,8 9,6 41 22 - - ZZW 1018,7 10
16.11.2017 09:00:00 11,6 9,7 31 17 36 19 ZZW 1018,8 9
16.11.2017 08:00:00 11,6 9,8 31 17 32 18 ZW 1018,7 8
16.11.2017 07:00:00 11,5 9,2 28 15 - - ZW 1019,1 10
16.11.2017 06:00:00 11,3 9,1 31 17 32 18 ZW 1019,2 10
16.11.2017 05:00:00 11,3 9,0 28 15 29 16 ZW 1019,5 10
16.11.2017 04:00:00 11,4 9,4 15 8 - - - 1020,1 10
16.11.2017 03:00:00 11,4 9,2 16 9 18 10 ZW 1020,7 10
16.11.2017 02:00:00 11,5 9,5 15 8 18 10 ZW 1021,1 10
16.11.2017 01:00:00 11,4 10,1 18 10 - - ZW 1021,4 10
16.11.2017 00:00:00 11,5 10,3 22 12 29 16 ZZW 1021,6 10
15.11.2017 23:00:00 11,4 10,0 21 11 29 16 ZZW 1022,0 10
15.11.2017 22:00:00 11,3 10,0 16 9 - - Z 1022,5 6
15.11.2017 21:00:00 11,1 10,0 18 10 18 10 OZO 1022,7 10
15.11.2017 20:00:00 10,2 9,3 18 10 22 12 O 1023,0 8
15.11.2017 19:00:00 10,1 9,6 15 8 - - O 1023,2 3,8
15.11.2017 18:00:00 10,4 9,7 11 6 11 6 OZO 1023,4 2,3
15.11.2017 17:00:00 10,4 9,3 8 4 11 6 O 1023,5 6
15.11.2017 16:00:00 10,6 8,7 8 4 - - O 1023,6 10
15.11.2017 15:00:00 10,5 8,4 5 3 11 6 O 1023,8 10
15.11.2017 14:00:00 10,4 8,5 8 4 11 6 O 1023,6 10
15.11.2017 13:00:00 10,4 8,6 5 3 - - ONO 1024,0 10
15.11.2017 12:00:00 10,4 8,2 5 3 11 6 ONO 1024,1 9
15.11.2017 11:00:00 10,7 7,3 8 4 14 8 NO 1023,9 10
15.11.2017 10:00:00 11,2 8,1 8 4 - - - 1023,4 10
15.11.2017 09:00:00 11,0 8,5 4 2 18 10 - 1023,0 10
15.11.2017 08:00:00 10,5 8,7 11 6 22 12 - 1022,4 10
15.11.2017 07:00:00 10,7 8,7 15 8 - - NW 1022,1 10
15.11.2017 06:00:00 10,7 8,6 9 5 18 10 NW 1021,6 10
15.11.2017 05:00:00 10,6 9,1 21 11 25 14 NNW 1021,4 10
15.11.2017 04:00:00 10,8 9,7 21 11 - - NW 1021,2 5
15.11.2017 03:00:00 11,6 9,4 16 9 22 12 WNW 1021,0 10
15.11.2017 02:00:00 12,1 10,5 18 10 25 14 W 1020,7 10
15.11.2017 01:00:00 12,3 10,6 22 12 - - W 1020,6 10
15.11.2017 00:00:00 12,4 11,0 22 12 25 14 W 1020,5 10
14.11.2017 23:00:00 12,0 10,7 22 12 25 14 WZW 1020,4 10
14.11.2017 22:00:00 11,8 10,7 26 14 - - WZW 1020,3 10
14.11.2017 21:00:00 11,6 10,6 22 12 25 14 WZW 1020,3 10
14.11.2017 20:00:00 11,1 10,4 9 5 14 8 ZW 1020,3 8
14.11.2017 19:00:00 11,5 8,8 9 5 - - WZW 1020,2 10
14.11.2017 18:00:00 11,4 8,5 11 6 11 6 W 1020,2 10
14.11.2017 17:00:00 11,4 8,2 11 6 18 10 W 1019,8 10
14.11.2017 16:00:00 11,7 8,6 15 8 - - W 1019,6 10
14.11.2017 15:00:00 11,8 9,0 22 12 29 16 WNW 1019,1 10
14.11.2017 14:00:00 11,8 9,1 34 18 40 21 WNW 1018,7 10
14.11.2017 13:00:00 11,6 9,3 39 21 - - WNW 1018,1 10
14.11.2017 12:00:00 11,6 9,4 42 23 43 23 WNW 1017,9 10
14.11.2017 11:00:00 11,4 9,7 31 17 40 21 W 1017,6 10
14.11.2017 10:00:00 10,7 9,7 37 20 - - W 1017,1 4,3
14.11.2017 09:00:00 10,9 8,6 42 23 43 23 WZW 1016,8 10
14.11.2017 08:00:00 10,0 8,7 42 23 47 25 WZW 1016,3 6
14.11.2017 07:00:00 10,1 7,4 48 26 - - WZW 1016,1 10
14.11.2017 06:00:00 9,7 6,3 50 27 50 27 ZW 1016,2 10
14.11.2017 05:00:00 9,3 4,3 50 27 50 27 ZW 1016,8 10
14.11.2017 04:00:00 9,4 4,0 44 24 - - ZW 1017,4 10
14.11.2017 03:00:00 9,2 3,2 37 20 40 21 WZW 1018,6 10
14.11.2017 02:00:00 9,0 2,4 34 18 36 19 ZW 1019,5 10
14.11.2017 01:00:00 9,1 1,5 29 16 - - WZW 1020,1 10
14.11.2017 00:00:00 8,9 1,1 28 15 29 16 W 1020,5 10
13.11.2017 23:00:00 8,9 2,9 22 12 25 14 W 1020,7 10
13.11.2017 22:00:00 8,0 3,5 13 7 - - W 1021,2 10
13.11.2017 21:00:00 8,7 3,2 21 11 29 16 WNW 1021,4 10
13.11.2017 20:00:00 8,4 3,3 34 18 36 19 WNW 1021,5 10
13.11.2017 19:00:00 8,7 1,9 29 16 - - WNW 1021,6 10
13.11.2017 18:00:00 8,9 2,3 31 17 43 23 NW 1021,2 10
13.11.2017 17:00:00 8,9 1,8 31 17 40 21 NW 1021,2 10
13.11.2017 16:00:00 8,9 2,0 29 16 - - NW 1021,0 10
13.11.2017 15:00:00 8,9 3,5 41 22 43 23 NNW 1020,8 10
13.11.2017 14:00:00 9,2 3,1 46 25 47 25 NNW 1020,6 10
13.11.2017 13:00:00 9,2 1,7 44 24 47 25 NNW 1020,3 10
13.11.2017 12:00:00 9,3 2,7 48 26 54 29 NNW 1020,1 10
13.11.2017 11:00:00 9,3 3,8 50 27 50 27 NNW 1019,5 10
13.11.2017 10:00:00 8,8 3,4 57 31 61 33 NNW 1018,9 10
13.11.2017 09:00:00 9,1 2,9 57 31 61 33 NNW 1018,4 10
13.11.2017 08:00:00 8,4 2,6 50 27 61 33 N 1017,5 10
13.11.2017 07:00:00 8,4 3,0 59 32 61 33 NNW 1016,6 10
13.11.2017 06:00:00 8,9 3,6 55 30 65 35 NNW 1015,8 10
13.11.2017 05:00:00 8,7 2,9 59 32 65 35 NNW 1014,8 10
13.11.2017 04:00:00 8,8 4,2 57 31 72 39 N 1014,3 10
13.11.2017 03:00:00 8,8 4,4 63 34 72 39 NNW 1013,7 10
13.11.2017 02:00:00 8,7 3,8 65 35 68 37 NNW 1013,0 10
13.11.2017 01:00:00 7,0 4,3 67 36 72 39 NNW 1012,2 10
13.11.2017 00:00:00 8,9 4,3 70 38 76 41 NNW 1011,5 10
12.11.2017 23:00:00 8,0 4,6 59 32 79 43 NNW 1010,3 10
12.11.2017 22:00:00 8,4 4,8 63 34 - - NNW 1009,4 10
12.11.2017 21:00:00 7,7 4,7 70 38 72 39 NNW 1008,4 10
12.11.2017 20:00:00 8,2 3,7 70 38 72 39 NNW 1007,3 10
12.11.2017 19:00:00 8,8 4,8 65 35 - - NNW 1006,1 10
12.11.2017 18:00:00 9,4 4,5 68 37 68 37 NNW 1005,0 10
12.11.2017 17:00:00 8,7 4,3 59 32 65 35 N 1003,7 10
12.11.2017 16:00:00 9,2 3,5 59 32 61 33 NNW 1002,7 10
12.11.2017 15:00:00 9,3 4,1 61 33 65 35 NNW 1001,6 10
12.11.2017 14:00:00 8,6 3,9 39 21 58 31 NNO 1000,8 9
12.11.2017 13:00:00 6,9 4,2 61 33 65 35 NNW 1000,2 5
12.11.2017 12:00:00 7,8 4,7 46 25 50 27 NNW 999,3 10
12.11.2017 11:00:00 7,2 4,2 37 20 47 25 WNW 999,3 10
12.11.2017 10:00:00 7,8 2,1 37 20 47 25 NW 999,6 10
12.11.2017 09:00:00 8,2 3,0 41 22 47 25 WNW 999,8 10
12.11.2017 08:00:00 7,9 2,9 42 23 47 25 WNW 1000,4 10
12.11.2017 07:00:00 7,4 1,3 52 28 58 31 WNW 1001,1 10
12.11.2017 06:00:00 7,3 0,9 28 15 61 33 NW 1001,8 10
12.11.2017 05:00:00 7,6 1,7 35 19 54 29 WNW 1002,6 10
12.11.2017 04:00:00 8,1 2,3 41 22 54 29 WNW 1003,8 10
12.11.2017 03:00:00 8,5 2,8 37 20 58 31 WNW 1004,2 10

tt = temperatuur
td = dauwpunt
ff = windsnelheid
fx = windstoten
dd = windrichting
ppp = luchtdruk
vv = zicht

Weerstations in de omgeving